Time,TemperatureF,DewpointF,PressureIn,WindDirection,WindDirectionDegrees,WindSpeedMPH,WindSpeedGustMPH,Humidity,HourlyPrecipIn,Conditions,Clouds,dailyrainin,SoftwareType,DateUTC
2014-01-17 00:10:00,37.3,34.0,30.10,North,5,0.0,-999.0,88,-99.99,,,0.00,weatherlink.com 1.10,2014-01-17 05:10:00,
2014-01-17 00:26:00,37.5,35.0,30.10,North,5,0.0,-999.0,89,-99.99,,,0.00,weatherlink.com 1.10,2014-01-17 05:26:00,
2014-01-17 00:41:00,38.1,35.0,30.10,North,5,0.0,-999.0,89,-99.99,,,0.00,weatherlink.com 1.10,2014-01-17 05:41:00,
2014-01-17 00:56:00,38.2,35.0,30.10,North,5,0.0,-999.0,88,-99.99,,,0.00,weatherlink.com 1.10,2014-01-17 05:56:00,
2014-01-17 01:11:00,38.6,35.0,30.10,North,5,0.0,-999.0,88,-99.99,,,0.00,weatherlink.com 1.10,2014-01-17 06:11:00,
2014-01-17 01:26:00,38.8,35.0,30.10,North,5,0.0,-999.0,87,-99.99,,,0.00,weatherlink.com 1.10,2014-01-17 06:26:00,
2014-01-17 01:41:00,38.4,36.0,30.10,North,5,0.0,-999.0,89,-99.99,,,0.00,weatherlink.com 1.10,2014-01-17 06:41:00,
2014-01-17 01:56:00,38.8,36.0,30.10,North,5,0.0,-999.0,90,-99.99,,,0.00,weatherlink.com 1.10,2014-01-17 06:56:00,
2014-01-17 02:11:00,38.6,36.0,30.10,North,5,0.0,-999.0,90,-99.99,,,0.00,weatherlink.com 1.10,2014-01-17 07:11:00,
2014-01-17 02:26:00,38.8,36.0,30.10,North,5,3.0,-999.0,89,-99.99,,,0.00,weatherlink.com 1.10,2014-01-17 07:26:00,
2014-01-17 02:41:00,38.5,35.0,30.10,North,5,4.0,-999.0,88,-99.99,,,0.00,weatherlink.com 1.10,2014-01-17 07:41:00,
2014-01-17 02:56:00,38.4,35.0,30.10,North,5,7.0,-999.0,86,-99.99,,,0.00,weatherlink.com 1.10,2014-01-17 07:56:00,
2014-01-17 03:11:00,38.6,34.0,30.10,North,5,7.0,-999.0,83,-99.99,,,0.00,weatherlink.com 1.10,2014-01-17 08:11:00,
2014-01-17 03:26:00,39.0,33.0,30.10,North,5,4.0,-999.0,80,-99.99,,,0.00,weatherlink.com 1.10,2014-01-17 08:26:00,
2014-01-17 03:41:00,39.4,33.0,30.11,North,5,8.0,-999.0,77,-99.99,,,0.00,weatherlink.com 1.10,2014-01-17 08:41:00,
2014-01-17 03:56:00,39.8,32.0,30.10,North,5,11.0,-999.0,75,-99.99,,,0.00,weatherlink.com 1.10,2014-01-17 08:56:00,
2014-01-17 04:11:00,40.1,32.0,30.10,North,5,13.0,-999.0,74,-99.99,,,0.00,weatherlink.com 1.10,2014-01-17 09:11:00,
2014-01-17 04:26:00,39.6,32.0,30.10,North,5,4.0,-999.0,73,-99.99,,,0.00,weatherlink.com 1.10,2014-01-17 09:26:00,
2014-01-17 04:41:00,39.0,31.0,30.10,North,5,6.0,-999.0,73,-99.99,,,0.00,weatherlink.com 1.10,2014-01-17 09:41:00,
2014-01-17 04:56:00,38.8,31.0,30.10,North,5,1.0,-999.0,74,-99.99,,,0.00,weatherlink.com 1.10,2014-01-17 09:56:00,
2014-01-17 05:11:00,38.8,31.0,30.10,North,5,0.0,-999.0,74,-99.99,,,0.00,weatherlink.com 1.10,2014-01-17 10:11:00,
2014-01-17 05:26:00,38.4,31.0,30.10,North,5,1.0,-999.0,74,-99.99,,,0.00,weatherlink.com 1.10,2014-01-17 10:26:00,
2014-01-17 05:41:00,38.0,30.0,30.11,North,5,4.0,-999.0,74,-99.99,,,0.00,weatherlink.com 1.10,2014-01-17 10:41:00,
2014-01-17 05:56:00,38.0,30.0,30.11,North,5,5.0,-999.0,72,-99.99,,,0.00,weatherlink.com 1.10,2014-01-17 10:56:00,
2014-01-17 06:11:00,37.9,30.0,30.11,North,5,4.0,-999.0,72,-99.99,,,0.00,weatherlink.com 1.10,2014-01-17 11:11:00,
2014-01-17 06:26:00,37.7,29.0,30.11,North,5,4.0,-999.0,72,-99.99,,,0.00,weatherlink.com 1.10,2014-01-17 11:26:00,
2014-01-17 06:41:00,38.2,30.0,30.12,North,5,5.0,-999.0,71,-99.99,,,0.00,weatherlink.com 1.10,2014-01-17 11:41:00,
2014-01-17 06:56:00,38.7,29.0,30.12,North,5,3.0,-999.0,69,-99.99,,,0.00,weatherlink.com 1.10,2014-01-17 11:56:00,
2014-01-17 07:11:00,38.3,28.0,30.12,North,5,8.0,-999.0,67,-99.99,,,0.00,weatherlink.com 1.10,2014-01-17 12:11:00,
2014-01-17 07:26:00,39.0,26.0,30.13,North,5,4.0,-999.0,61,-99.99,,,0.00,weatherlink.com 1.10,2014-01-17 12:26:00,
2014-01-17 07:41:00,39.8,27.0,30.13,North,5,2.0,-999.0,61,-99.99,,,0.00,weatherlink.com 1.10,2014-01-17 12:41:00,
2014-01-17 07:56:00,40.4,28.0,30.13,North,5,3.0,-999.0,61,-99.99,,,0.00,weatherlink.com 1.10,2014-01-17 12:56:00,
2014-01-17 08:11:00,41.3,28.0,30.12,North,5,2.0,-999.0,60,-99.99,,,0.00,weatherlink.com 1.10,2014-01-17 13:11:00,
2014-01-17 08:27:00,42.6,30.0,30.12,North,5,1.0,-999.0,62,-99.99,,,0.00,weatherlink.com 1.10,2014-01-17 13:27:00,
2014-01-17 08:42:00,44.1,31.0,30.13,North,5,2.0,-999.0,61,-99.99,,,0.00,weatherlink.com 1.10,2014-01-17 13:42:00,
2014-01-17 08:57:00,45.2,33.0,30.13,North,5,6.0,-999.0,62,-99.99,,,0.00,weatherlink.com 1.10,2014-01-17 13:57:00,
2014-01-17 09:12:00,46.0,33.0,30.14,North,5,7.0,-999.0,60,-99.99,,,0.00,weatherlink.com 1.10,2014-01-17 14:12:00,
2014-01-17 09:27:00,47.0,32.0,30.15,North,5,11.0,-999.0,56,-99.99,,,0.00,weatherlink.com 1.10,2014-01-17 14:27:00,
2014-01-17 09:42:00,47.1,33.0,30.15,North,5,7.0,-999.0,58,-99.99,,,0.00,weatherlink.com 1.10,2014-01-17 14:42:00,
2014-01-17 09:57:00,47.7,33.0,30.15,North,5,10.0,-999.0,57,-99.99,,,0.00,weatherlink.com 1.10,2014-01-17 14:57:00,
2014-01-17 10:12:00,48.3,33.0,30.15,North,5,14.0,-999.0,56,-99.99,,,0.00,weatherlink.com 1.10,2014-01-17 15:12:00,
2014-01-17 10:27:00,48.8,32.0,30.15,North,5,14.0,-999.0,53,-99.99,,,0.00,weatherlink.com 1.10,2014-01-17 15:27:00,
2014-01-17 10:42:00,49.2,32.0,30.14,North,5,12.0,-999.0,52,-99.99,,,0.00,weatherlink.com 1.10,2014-01-17 15:42:00,
2014-01-17 10:57:00,49.7,33.0,30.13,North,5,13.0,-999.0,54,-99.99,,,0.00,weatherlink.com 1.10,2014-01-17 15:57:00,
2014-01-17 11:12:00,50.1,34.0,30.13,North,5,9.0,-999.0,55,-99.99,,,0.00,weatherlink.com 1.10,2014-01-17 16:12:00,
2014-01-17 11:27:00,50.4,34.0,30.13,North,5,12.0,-999.0,53,-99.99,,,0.00,weatherlink.com 1.10,2014-01-17 16:27:00,
2014-01-17 11:43:00,50.6,34.0,30.12,North,5,14.0,-999.0,54,-99.99,,,0.00,weatherlink.com 1.10,2014-01-17 16:43:00,
2014-01-17 11:58:00,51.1,35.0,30.11,North,5,8.0,-999.0,54,-99.99,,,0.00,weatherlink.com 1.10,2014-01-17 16:58:00,
2014-01-17 12:12:00,51.6,35.0,30.09,North,5,9.0,-999.0,53,-99.99,,,0.00,weatherlink.com 1.10,2014-01-17 17:12:00,
2014-01-17 12:27:00,51.8,34.0,30.09,North,5,12.0,-999.0,52,-99.99,,,0.00,weatherlink.com 1.10,2014-01-17 17:27:00,
2014-01-17 12:43:00,52.1,34.0,30.08,North,5,12.0,-999.0,51,-99.99,,,0.00,weatherlink.com 1.10,2014-01-17 17:43:00,
2014-01-17 12:58:00,52.6,35.0,30.07,North,5,9.0,-999.0,52,-99.99,,,0.00,weatherlink.com 1.10,2014-01-17 17:58:00,
2014-01-17 13:28:00,53.5,40.0,30.06,North,5,12.0,-999.0,60,-99.99,,,0.00,weatherlink.com 1.10,2014-01-17 18:28:00,
2014-01-17 13:58:00,53.7,40.0,30.05,North,5,15.0,-999.0,60,-99.99,,,0.00,weatherlink.com 1.10,2014-01-17 18:58:00,
2014-01-17 14:13:00,53.8,40.0,30.04,North,5,12.0,-999.0,61,-99.99,,,0.00,weatherlink.com 1.10,2014-01-17 19:13:00,
2014-01-17 14:28:00,53.6,40.0,30.03,North,5,14.0,-999.0,61,-99.99,,,0.00,weatherlink.com 1.10,2014-01-17 19:28:00,
2014-01-17 14:43:00,53.7,42.0,30.03,North,5,13.0,-999.0,64,-99.99,,,0.00,weatherlink.com 1.10,2014-01-17 19:43:00,
2014-01-17 14:58:00,53.7,42.0,30.03,North,5,12.0,-999.0,66,-99.99,,,0.00,weatherlink.com 1.10,2014-01-17 19:58:00,
2014-01-17 15:13:00,53.6,42.0,30.02,North,5,15.0,-999.0,66,-99.99,,,0.00,weatherlink.com 1.10,2014-01-17 20:13:00,
2014-01-17 15:28:00,53.6,42.0,30.02,North,5,17.0,-999.0,66,-99.99,,,0.00,weatherlink.com 1.10,2014-01-17 20:28:00,
2014-01-17 15:43:00,53.6,43.0,30.02,North,5,18.0,-999.0,67,-99.99,,,0.00,weatherlink.com 1.10,2014-01-17 20:43:00,
2014-01-17 15:58:00,53.7,42.0,30.01,North,5,18.0,-999.0,66,-99.99,,,0.00,weatherlink.com 1.10,2014-01-17 20:58:00,
2014-01-17 16:13:00,53.8,43.0,30.01,North,5,19.0,-999.0,67,-99.99,,,0.00,weatherlink.com 1.10,2014-01-17 21:13:00,
2014-01-17 16:29:00,53.7,43.0,30.01,North,5,19.0,-999.0,67,-99.99,,,0.00,weatherlink.com 1.10,2014-01-17 21:29:00,
2014-01-17 16:44:00,53.5,44.0,30.00,North,5,17.0,-999.0,69,-99.99,,,0.00,weatherlink.com 1.10,2014-01-17 21:44:00,
2014-01-17 16:59:00,53.2,44.0,30.00,North,5,17.0,-999.0,70,-99.99,,,0.00,weatherlink.com 1.10,2014-01-17 21:59:00,
2014-01-17 17:14:00,53.5,44.0,30.00,North,5,19.0,-999.0,70,-99.99,,,0.00,weatherlink.com 1.10,2014-01-17 22:14:00,
2014-01-17 17:29:00,53.8,45.0,30.00,North,5,21.0,-999.0,72,-99.99,,,0.00,weatherlink.com 1.10,2014-01-17 22:29:00,
2014-01-17 17:44:00,54.2,45.0,30.00,North,5,18.0,-999.0,70,-99.99,,,0.00,weatherlink.com 1.10,2014-01-17 22:44:00,
2014-01-17 17:59:00,54.1,46.0,29.99,North,5,18.0,-999.0,73,-99.99,,,0.00,weatherlink.com 1.10,2014-01-17 22:59:00,
2014-01-17 18:14:00,54.2,46.0,29.99,North,5,18.0,-999.0,75,-99.99,,,0.00,weatherlink.com 1.10,2014-01-17 23:14:00,
2014-01-17 18:29:00,54.2,46.0,29.99,North,5,18.0,-999.0,75,-99.99,,,0.00,weatherlink.com 1.10,2014-01-17 23:29:00,
2014-01-17 18:44:00,54.5,47.0,29.98,North,5,18.0,-999.0,75,-99.99,,,0.00,weatherlink.com 1.10,2014-01-17 23:44:00,
2014-01-17 18:59:00,54.5,47.0,29.99,North,5,17.0,-999.0,77,-99.99,,,0.00,weatherlink.com 1.10,2014-01-17 23:59:00,
2014-01-17 19:14:00,54.7,48.0,29.98,North,5,19.0,-999.0,78,-99.99,,,0.00,weatherlink.com 1.10,2014-01-18 00:14:00,
2014-01-17 19:29:00,54.9,48.0,29.98,North,5,16.0,-999.0,78,-99.99,,,0.00,weatherlink.com 1.10,2014-01-18 00:29:00,
2014-01-17 19:45:00,54.8,48.0,29.98,North,5,16.0,-999.0,79,-99.99,,,0.00,weatherlink.com 1.10,2014-01-18 00:45:00,
2014-01-17 20:00:00,54.9,49.0,29.98,North,5,14.0,-999.0,80,-99.99,,,0.00,weatherlink.com 1.10,2014-01-18 01:00:00,
2014-01-17 20:15:00,55.3,49.0,29.97,North,5,19.0,-999.0,79,-99.99,,,0.00,weatherlink.com 1.10,2014-01-18 01:15:00,
2014-01-17 20:30:00,55.3,49.0,29.97,North,5,16.0,-999.0,80,-99.99,,,0.00,weatherlink.com 1.10,2014-01-18 01:30:00,
2014-01-17 20:45:00,55.2,49.0,29.97,North,5,17.0,-999.0,79,-99.99,,,0.00,weatherlink.com 1.10,2014-01-18 01:45:00,
2014-01-17 21:00:00,54.9,49.0,29.97,North,5,17.0,-999.0,81,-99.99,,,0.00,weatherlink.com 1.10,2014-01-18 02:00:00,
2014-01-17 21:15:00,54.8,49.0,29.98,North,5,17.0,-999.0,80,-99.99,,,0.00,weatherlink.com 1.10,2014-01-18 02:15:00,
2014-01-17 21:30:00,54.7,49.0,29.97,North,5,16.0,-999.0,81,-99.99,,,0.00,weatherlink.com 1.10,2014-01-18 02:30:00,
2014-01-17 21:45:00,54.3,49.0,29.98,North,5,14.0,-999.0,83,-99.99,,,0.00,weatherlink.com 1.10,2014-01-18 02:45:00,
2014-01-17 22:00:00,54.1,49.0,29.97,North,5,14.0,-999.0,84,-99.99,,,0.00,weatherlink.com 1.10,2014-01-18 03:00:00,
2014-01-17 22:15:00,53.9,50.0,29.97,North,5,11.0,-999.0,85,-99.99,,,0.00,weatherlink.com 1.10,2014-01-18 03:15:00,
2014-01-17 22:30:00,53.2,50.0,29.96,North,5,11.0,-999.0,87,-99.99,,,0.00,weatherlink.com 1.10,2014-01-18 03:30:00,
2014-01-17 22:45:00,52.6,50.0,29.96,North,5,6.0,-999.0,89,-99.99,,,0.00,weatherlink.com 1.10,2014-01-18 03:45:00,
2014-01-17 23:00:00,52.2,49.0,29.95,North,5,6.0,-999.0,90,-99.99,,,0.00,weatherlink.com 1.10,2014-01-18 04:00:00,
2014-01-17 23:16:00,52.0,50.0,29.94,North,5,7.0,-999.0,91,-99.99,,,0.00,weatherlink.com 1.10,2014-01-18 04:16:00,
2014-01-17 23:31:00,51.9,49.0,29.93,North,5,8.0,-999.0,91,-99.99,,,0.00,weatherlink.com 1.10,2014-01-18 04:31:00,
2014-01-17 23:46:00,51.8,49.0,29.92,North,5,8.0,-999.0,91,-99.99,,,0.00,weatherlink.com 1.10,2014-01-18 04:46:00,